FW2512 Weather Reports


Display with metric or nautical units.
time (UTC)temp
F
wind
direction
speed
MPH
gust
MPH
rain 1hr
in
rain 24hr
in
rain mn
in
humidity
%
barometer
mb
20240228220009 63 324 2.0 7.0 0.06 0.07 0.07 76 1010.7
20240228214519 63 238 2.0 7.0 0.05 0.06 0.06 76 1010.7
20240228213007 64 305 4.0 15.0 0.05 0.05 0.05 75 1010.3
20240228211507 65 257 5.0 12.0 0.03 0.03 0.03 75 1010.2
20240228210006 66 230 5.0 11.0 0.02 0.02 0.02 73 1009.3
20240228204506 67 225 4.0 16.0 0.01 0.01 0.01 70 1009.1
20240228203009 69 229 9.0 19.0 0.00 0.00 0.00 66 1008.8
20240228201506 70 235 9.0 18.0 0.00 0.00 0.00 66 1008.7
20240228200009 69 210 11.0 17.0 0.00 0.00 0.00 66 1008.6
20240228194504 69 228 10.0 20.0 0.00 0.00 0.00 66 1008.7
20240228193001 69 209 13.0 22.0 0.00 0.00 0.00 67 1008.8
20240228191559 68 185 10.0 18.0 0.00 0.00 0.00 68 1008.5
20240228190054 68 194 8.0 20.0 0.00 0.00 0.00 69 1008.9
20240228184551 67 209 7.0 14.0 0.00 0.00 0.00 70 1009.2
20240228183052 67 241 8.0 17.0 0.00 0.00 0.00 71 1009.6
20240228181556 67 252 8.0 17.0 0.00 0.01 0.00 71 1009.8
20240228180042 66 245 8.0 26.0 0.00 0.01 0.00 72 1010.1
20240228174544 65 245 12.0 20.0 0.00 0.01 0.00 73 1010.5
20240228173037 65 232 7.0 22.0 0.00 0.01 0.00 73 1010.5
20240228171537 65 262 8.0 19.0 0.00 0.01 0.00 74 1010.8
20240228170041 64 219 8.0 20.0 0.00 0.01 0.00 74 1010.9
20240228164533 64 212 7.0 15.0 0.00 0.01 0.00 75 1010.8
20240228163034 63 234 11.0 17.0 0.00 0.01 0.00 75 1011.1
20240228161528 63 209 9.0 18.0 0.00 0.03 0.00 76 1011.4
20240228160025 62 264 5.0 10.0 0.00 0.03 0.00 77 1011.4
20240228154533 61 225 4.0 12.0 0.00 0.03 0.00 77 1011.4
20240228153026 61 194 5.0 14.0 0.00 0.03 0.00 77 1011.4
20240228151520 61 211 5.0 12.0 0.00 0.04 0.00 77 1011.6
20240228150020 60 247 5.0 13.0 0.00 0.04 0.00 77 1011.5
20240228144519 60 225 8.0 13.0 0.00 0.04 0.00 77 1011.4
20240228143015 60 186 6.0 15.0 0.00 0.04 0.00 77 1011.5
20240228141515 59 200 8.0 15.0 0.00 0.04 0.00 77 1011.7
20240228140015 59 237 6.0 14.0 0.00 0.04 0.00 77 1011.8
20240228134517 59 219 4.0 13.0 0.00 0.04 0.00 77 1011.9
20240228133013 59 236 6.0 14.0 0.00 0.04 0.00 76 1012.3
20240228131511 59 194 6.0 15.0 0.00 0.04 0.00 76 1012.1
20240228130010 59 232 7.0 14.0 0.00 0.04 0.00 76 1012.2
20240228124508 59 203 7.0 12.0 0.00 0.04 0.00 75 1012.0
20240228123008 59 187 5.0 14.0 0.00 0.04 0.00 75 1011.9
20240228121510 59 228 7.0 11.0 0.00 0.04 0.00 75 1012.3
20240228120008 59 231 4.0 11.0 0.00 0.04 0.00 75 1012.1
20240228114507 59 232 7.0 14.0 0.00 0.04 0.00 74 1011.8
20240228113005 59 227 3.0 9.0 0.00 0.04 0.00 74 1012.1
20240228111609 59 235 2.0 8.0 0.00 0.04 0.00 74 1012.0
20240228110058 59 230 4.0 11.0 0.00 0.04 0.00 74 1011.7
20240228104559 60 188 4.0 11.0 0.00 0.04 0.00 74 1011.9
20240228103102 60 218 5.0 14.0 0.00 0.04 0.00 74 1011.6
20240228101559 60 195 7.0 14.0 0.00 0.04 0.04 74 1011.4
20240228100053 60 214 7.0 16.0 0.00 0.04 0.04 74 1011.6
20240228094600 60 212 8.0 14.0 0.00 0.04 0.04 73 1011.8
20240228093053 60 229 4.0 12.0 0.00 0.04 0.04 73 1011.8
20240228091550 60 266 5.0 10.0 0.00 0.04 0.04 73 1011.7
20240228090056 61 236 7.0 14.0 0.00 0.04 0.04 73 1011.7
20240228084549 61 194 4.0 15.0 0.00 0.04 0.04 73 1012.0
20240228083102 60 205 3.0 10.0 0.00 0.04 0.04 74 1012.4
20240228081549 60 211 2.0 9.0 0.00 0.04 0.04 74 1012.5
20240228080102 60 225 4.0 12.0 0.00 0.04 0.04 74 1012.3
20240228074549 60 228 4.0 9.0 0.00 0.04 0.04 75 1012.7
20240228073048 60 230 3.0 9.0 0.00 0.04 0.04 75 1012.9
20240228071552 60 222 2.0 8.0 0.00 0.04 0.04 75 1012.8
20240228070047 60 230 3.0 12.0 0.00 0.04 0.04 75 1013.3
20240228064547 60 315 1.0 4.0 0.00 0.04 0.04 75 1013.1
20240228063047 60 263 4.0 11.0 0.00 0.04 0.04 75 1013.1
20240228061548 60 245 3.0 9.0 0.00 0.04 0.04 75 1013.3
20240228060102 60 258 1.0 7.0 0.00 0.04 0.04 75 1012.9
20240228054546 60 257 4.0 11.0 0.00 0.04 0.04 75 1013.4
20240228053046 60 248 3.0 11.0 0.00 0.04 0.04 75 1013.5
20240228051545 60 213 1.0 6.0 0.00 0.04 0.04 75 1013.2
20240228050059 60 261 2.0 6.0 0.00 0.04 0.04 76 1013.2
20240228044548 60 256 1.0 5.0 0.00 0.04 0.04 76 1013.4
20240228043046 59 252 2.0 7.0 0.00 0.04 0.04 76 1013.5
20240228041553 59 269 2.0 5.0 0.00 0.04 0.04 77 1013.5
20240228040044 60 259 1.0 5.0 0.00 0.04 0.04 76 1013.7
20240228034542 60 258 0.0 7.0 0.00 0.04 0.04 76 1014.1
20240228033048 61 234 4.0 10.0 0.00 0.04 0.04 75 1014.4
20240228031540 61 239 3.0 10.0 0.00 0.04 0.04 75 1014.2
20240228030039 61 223 3.0 13.0 0.00 0.04 0.04 75 1014.0
20240228024539 61 248 3.0 10.0 0.00 0.04 0.04 76 1014.0
20240228023040 61 265 5.0 11.0 0.00 0.04 0.04 76 1014.1
20240228021540 61 215 8.0 13.0 0.00 0.04 0.04 75 1014.2
20240228020038 61 203 6.0 14.0 0.00 0.04 0.04 75 1014.1
20240228014535 61 217 8.0 16.0 0.00 0.04 0.04 75 1014.1
20240228013034 61 214 6.0 10.0 0.00 0.04 0.04 76 1014.4
20240228011534 61 211 3.0 12.0 0.00 0.04 0.04 76 1014.3
20240228010031 61 194 4.0 9.0 0.00 0.04 0.04 76 1014.1
20240228004527 61 203 4.0 16.0 0.00 0.04 0.04 76 1014.3
20240228003040 61 242 6.0 14.0 0.00 0.04 0.04 76 1014.2
20240228001533 61 223 4.0 9.0 0.00 0.04 0.04 76 1014.0
20240228000032 60 217 3.0 6.0 0.00 0.04 0.04 77 1013.8
20240227234522 60 235 2.0 7.0 0.00 0.04 0.04 77 1013.2
20240227233022 59 191 4.0 8.0 0.00 0.04 0.04 77 1012.7
20240227231521 59 234 4.0 8.0 0.00 0.04 0.04 77 1012.7
20240227230019 59 229 2.0 10.0 0.00 0.04 0.04 77 1012.2
20240227224517 59 244 3.0 9.0 0.00 0.04 0.04 77 1012.8
20240227223017 59 253 0.0 4.0 0.00 0.04 0.04 77 1012.9
20240227221518 59 219 3.0 8.0 0.00 0.04 0.04 77 1012.2